DECAYED

STARLINK-4118, 53538 (Decayed)

Orbit data source: Space-Track

STARLINK-4118, 53538 was a payload satellite owned by SpaceX/Seattle (US) in LEO that was launched on Fri, 19 Aug 2022 UTC via an FALCON 9 launch vehicle from the Air Force Eastern Test Range (AFETR). Payload-class satellites include a variety of spacecraft equipped with specific instruments for various scientific and technological missions. These include communications satellites like Starlink; space stations such as the ISS; scientific satellites like the Hubble; Earth observation satellites from companies like Planet Labs, Umbra, and HawkEye 360; GPS; miniature CubeSats for education and research; and military/defense satellites.

Not visible in the next 10 days
Identifier
53538, 2022-101M
Orbit
Decayed
Country
Flag of USUS
Related business
Manufacturer
SpaceX/Seattle
Mission
Decayed Commercial Communications
Bus & Motor
STARLINK, Unknown motor
Mass
300 kg wet, ~290 kg dry
Launch date (UTC)
2022-08-19 (4 years ago)
Launch vehicle
FALCON 9
Launch site
Air Force Eastern Test Range (AFETR)
Object type
Payload
Rocket body
Debris
Shape & HBR
Box + 1 Pan, 10.1 m
Radar Cross Section
13.562 m², Large (>1 m²)

Expand to show TLE details & history
Last TLE update: 4 months ago

TLE from 4 months ago
0 STARLINK-4118
1 53538U 22101M   26038.80793653  .09956111  12548-4  24718-3 0  9991
2 53538  53.1974 172.9058 0001879 338.6727  21.4246 16.46129599192832
Epoch: 2026-02-07T19:23Z
TLE epoch observation values (Epoch: 2026-02-07T19:23:25.716Z)
Latitude
0.00003°
Longitude
104.12252°
Altitude
149.354 km
Speed
7.819 km/s
True Right ascension
11h 31m 37s
True Declination
0° 00' 00"
Sunlit
Object was in full shadow at epoch
Visualization orbit readout
Latitude
Unknown
Longitude
Unknown
Altitude
Unknown
Speed
Unknown
Apparent Right ascension
Unknown
Apparent Declination
Unknown
Sunlit
N/A
Visualization observer readout
Local Sidereal Time
21:29:35
Azimuth
Unknown
Elevation
Unknown
Doppler factor
Unknown
Orbital elements
Apogee altitude
151.037 km
Perigee altitude
148.583 km
Semi-major axis
6,527.947 km
Eccentricity
0.00019
Inclination
53.1974°
RAAN
172.9058°
Arg. of periapsis
338.6727°
True anomaly
21.43247°
Mean anomaly
21.4246°
Eccentric anomaly
21.42853°
Mean motion
4.11508 °/min
Orbital period
87.48 mins
BSTAR
0.00024718
Loading maneuver chart data...
Computing Atmospheric mass density...
Loading historical data...
Loading historical data...
Loading historical data...
Loading historical data...
Loading historical data...
Loading historical data...
Loading historical data...

Documentation

Showing up to 5 results
|